[[[{"header":{"parameterUnit":"kt","parameterCategory":2,"dx":1,"dy":1,"la1":30.253999710083008,"la2":30.299108505249023,"lo1":-89.0895004272461,"lo2":-89.04439544677734,"nx":28,"ny":28,"refTime":"2022-09-27T21:00:00:Z","depth":0,"parameterNumber":1,"parameterNumberName":"U-component_of_WINDS"},"data":[-4.9332,-4.9508,-4.9541,-4.9757,-4.9823,-4.9977,-5.0042,-5.013,-5.0208,-5.0394,-5.0508,-5.0558,-5.0649,-5.0792,-5.0917,-5.0936,-5.0989,-5.1026,-5.1044,-5.0842,-5.0817,-5.0793,-5.0754,-5.1036,-5.1037,-5.125,-5.1252,-5.1253,-4.918,-4.9247,-4.9371,-4.9513,-4.9619,-4.9602,-4.9713,-4.9804,-4.9942,-5.0039,-5.0152,-5.0319,-5.0455,-5.0535,-5.0672,-5.0755,-5.0756,-5.079,-5.0787,-5.0802,-5.0587,-5.0546,-5.0787,-5.0787,-5.0787,-5.0787,-5.0787,-5.0787,-4.8913,-4.9018,-4.9123,-4.9258,-4.9338,-4.9433,-4.9538,-4.9598,-4.972,-4.9867,-4.9882,-5.0038,-5.0142,-5.0323,-5.0392,-5.0515,-5.0484,-5.0532,-5.0546,-5.0558,-5.0568,-5.026,-5.054,-5.0539,-5.0538,-5.0538,-5.0538,0,-4.8729,-4.875,-4.8871,-4.9002,-4.9102,-4.9207,-4.9308,-4.9374,-4.9429,-4.9527,-4.9672,-4.9761,-4.9937,-5.0078,-5.0213,-5.0276,-5.0271,-5.0272,-5.0307,-5.0305,-5.0284,-5.03,-4.9951,-5.0265,-5.0263,-5.0261,-5.026,-5.0259,-4.8466,-4.8583,-4.8709,-4.8789,-4.8853,-4.8983,-4.9067,-4.9106,-4.9194,-4.9324,-4.9415,-4.9555,-4.9671,-4.9897,-4.9968,-5.01,-5.01,-5.0216,-5.012,-5.0111,-5.0106,-5.01,-5.0114,-5.0236,-5.0239,-5.0241,-5.0243,0,-4.8315,-4.8369,-4.8561,-4.8674,-4.8706,-4.8827,-4.8924,-4.903,-4.9077,-4.9229,-4.9267,-4.9342,-4.9484,-4.9536,-4.9708,-4.9731,-4.9933,-4.9927,-4.9897,-4.99,-5.0013,-5.0003,-5.0363,-5.0413,-5.0117,-5.012,-5.0122,0,-4.8113,-4.8265,-4.8337,-4.8446,-4.8615,-4.8652,-4.8819,-4.8877,-4.8967,-4.9087,-4.9088,-4.9201,-4.925,-4.937,-4.9405,-4.9577,-4.9609,-4.9638,-4.9647,-4.9641,-4.9638,-4.9692,-4.968,-4.9656,-4.9654,-4.9652,-4.9651,0,-4.7875,-4.809,-4.8266,-4.8324,-4.8462,-4.8543,-4.8604,-4.8706,-4.8788,-4.8903,-4.8957,-4.9087,-4.916,-4.9261,-4.9304,-4.9237,-4.9516,-4.9433,-4.9547,-4.9546,-4.961,-4.9606,-4.9907,-4.9648,-4.9648,-4.9647,-4.9647,0,-4.7722,-4.7837,-4.8083,-4.8198,-4.8253,-4.8369,-4.85,-4.8611,-4.8719,-4.8748,-4.8838,-4.8847,-4.9,-4.8914,-4.9127,-4.9028,-4.9099,-4.914,-4.9149,-4.9171,-4.9074,-4.9242,-4.952,-4.9553,-4.9184,-4.918,-4.9177,0,-4.7436,-4.7699,-4.7733,-4.7966,-4.8095,-4.8089,-4.8217,-4.8313,-4.8363,-4.8479,-4.8534,-4.8667,-4.8614,-4.8663,-4.8761,-4.8824,-4.8953,-4.8807,-4.8979,-4.8985,-4.8955,-4.921,-4.9241,-4.9452,-4.9128,-4.9133,-4.9137,0,-4.7222,-4.7388,-4.7427,-4.7496,-4.7627,-4.7735,-4.7882,-4.8023,-4.8099,-4.8205,-4.8331,-4.8517,-4.8486,-4.8568,-4.8589,-4.8688,-4.8867,-4.8641,-4.8645,-4.8683,-4.9107,-4.9135,-4.917,-4.8859,-4.8865,-4.887,-4.9098,0,-4.6985,-4.7123,-4.723,-4.738,-4.7471,-4.7619,-4.7676,-4.7764,-4.7775,-4.7825,-4.801,-4.8103,-4.8247,-4.8299,-4.8311,-4.8521,-4.8495,-4.846,-4.8384,-4.855,-4.8627,-4.8658,-4.8264,-4.8262,-4.8261,-4.8259,0,0,-4.67,-4.6899,-4.6932,-4.7077,-4.7157,-4.715,-4.7303,-4.738,-4.7535,-4.759,-4.7547,-4.7825,-4.7903,-4.8122,-4.8178,-4.8235,-4.8279,-4.8219,-4.8469,-4.8493,-4.8514,-4.8595,-4.8627,-4.8257,-4.8256,-4.8255,-4.8255,0,-4.6626,-4.6703,-4.6854,-4.6935,-4.7055,-4.7101,-4.7137,-4.7256,-4.7295,-4.7476,-4.7469,-4.7587,-4.7808,-4.7893,-4.7964,-4.8193,-4.8183,-4.8231,-4.8337,-4.8451,-4.8476,-4.8499,-4.8583,-4.8613,-4.8251,-4.8251,-4.8251,0,-4.6428,-4.6515,-4.6593,-4.6772,-4.6852,-4.6984,-4.6917,-4.7059,-4.7159,-4.7146,-4.7326,-4.7386,-4.7502,-4.7701,-4.7793,-4.7757,-4.8093,-4.7996,-4.8008,-4.802,-4.8134,-4.8164,-4.8191,-4.7836,-4.7835,-4.7833,0,0,-4.6357,-4.6485,-4.6592,-4.6761,-4.6811,-4.6881,-4.6957,-4.6977,-4.7082,-4.7124,-4.7201,-4.7304,-4.7433,-4.7517,-4.7641,-4.7851,-4.788,-4.7942,-4.7962,-4.7978,-4.7999,-4.8116,-4.8146,-4.7827,-4.7827,-4.7826,0,0,-4.6323,-4.6454,-4.6447,-4.665,-4.675,-4.6867,-4.6969,-4.6963,-4.7081,-4.7071,-4.7112,-4.7141,-4.7327,-4.7387,-4.7295,-4.7616,-4.7538,-4.7561,-4.7571,-4.7596,-4.7616,-4.7599,-4.7242,0,0,0,0,0,-4.6278,-4.6437,-4.6429,-4.6472,-4.6699,-4.6871,-4.69,-4.6937,-4.6882,-4.6962,-4.7025,-4.7009,-4.7346,-4.7266,-4.7308,-4.7411,-4.7745,-4.776,-4.7773,-4.7835,-4.7861,-4.7883,0,0,0,0,0,0,-4.6295,-4.6347,-4.6425,-4.6549,-4.66,-4.6865,-4.678,-4.6795,-4.6874,-4.6869,-4.6997,-4.7013,-4.7048,-4.7247,-4.7284,-4.7381,-4.7229,-4.7751,-4.7763,-4.7774,-4.7844,-4.7865,-4.7884,0,0,0,0,0,-4.6309,-4.6351,-4.6706,-4.6547,-4.6591,-4.6679,-4.6774,-4.6786,-4.6848,-4.6948,-4.6963,-4.6869,-4.705,-4.7084,-4.7269,-4.7363,-4.7204,-4.7217,-4.7759,-4.7768,-4.7777,-4.7854,0,0,0,0,0,0,-4.6319,-4.6363,-4.6715,-4.673,-4.649,-4.6665,-4.6693,-4.6778,-4.6923,-4.694,-4.6821,-4.6815,-4.7053,-4.7079,-4.7105,-4.7355,-4.7183,-4.7197,-4.7205,-4.7766,-4.7774,-4.7781,0,0,0,0,0,0,-4.6341,-4.6376,-4.6723,-4.6649,-4.6656,-4.6652,-4.6677,-4.6839,-4.6925,-4.6789,-4.6788,-4.6817,-4.7014,-4.7076,-4.7097,-4.7349,-4.7167,-4.718,-4.7189,-4.7195,-4.7772,-4.7778,0,0,0,0,0,0,-4.6356,-4.6386,-4.6645,-4.6651,-4.6656,-4.6828,-4.6796,-4.7027,-4.686,-4.6782,-4.6846,-4.684,-4.7012,-4.7033,-4.7091,-4.7334,-4.7345,-4.7167,-4.7176,-4.7183,-4.7187,0,0,0,0,0,0,0,-4.6369,-4.6158,-4.6626,-4.6652,-4.6657,-4.6869,-4.6873,-4.6878,-4.6859,-4.6853,-4.6848,-4.6843,-4.709,-4.7105,-4.7119,-4.7323,0,0,-4.7166,-4.7172,0,0,0,0,0,0,0,0,-4.6146,-4.6155,-4.6627,-4.663,-4.6633,-4.687,-4.6873,-4.6877,-4.6858,-4.6853,-4.6849,-4.6845,-4.7094,-4.7106,-4.7118,0,0,0,0,0,0,0,0,0,0,0,0,0,0,0,-4.6627,-4.663,0,-4.687,-4.6873,-4.6876,-4.6857,-4.6854,-4.685,-4.6846,-4.7097,-4.7107,-4.7117,0,0,0,0,0,0,0,0,0,0,0,0,0,0,0,0,0,0,0,0,0,0,0,0,0,0,0,0,0,0,0,0,0,0,0,0,0,0,0,0,0,0,0,0,0,0,0,0,0,0,0,0,0,0,0,0,0,0,0,0,0,0,0,0,0,0,0,0,0]}],[{"header":{"parameterUnit":"kt","parameterCategory":2,"dx":1,"dy":1,"la1":30.253999710083008,"la2":30.299108505249023,"lo1":-89.0895004272461,"lo2":-89.04439544677734,"nx":28,"ny":28,"refTime":"2022-09-27T21:00:00:Z","depth":0,"parameterNumber":2,"parameterNumberName":"V-component_of_WINDS"},"data":[-16.2945,-16.3178,-16.3187,-16.3454,-16.3506,-16.3688,-16.3755,-16.3841,-16.391,-16.4124,-16.4247,-16.4273,-16.434,-16.4484,-16.4614,-16.4621,-16.4676,-16.4755,-16.475,-16.4397,-16.4349,-16.4302,-16.425,-16.4767,-16.4767,-16.5114,-16.5118,-16.512,-16.2689,-16.2744,-16.2889,-16.3033,-16.3155,-16.3085,-16.3191,-16.3297,-16.346,-16.3546,-16.3667,-16.3853,-16.3999,-16.4038,-16.4178,-16.4282,-16.4254,-16.4319,-16.4311,-16.4323,-16.3946,-16.3891,-16.4339,-16.4339,-16.4339,-16.4339,-16.4339,-16.4339,-16.2224,-16.2363,-16.2456,-16.2611,-16.2685,-16.278,-16.2911,-16.2943,-16.308,-16.323,-16.3207,-16.3389,-16.3472,-16.364,-16.3695,-16.3834,-16.3761,-16.3832,-16.385,-16.3869,-16.389,-16.3391,-16.3857,-16.3855,-16.3854,-16.3853,-16.3852,0,-16.1886,-16.1884,-16.2021,-16.2163,-16.2275,-16.2383,-16.2482,-16.2563,-16.2551,-16.2664,-16.2827,-16.292,-16.3103,-16.3253,-16.3382,-16.3424,-16.3357,-16.335,-16.3399,-16.3415,-16.3413,-16.3418,-16.2805,-16.3336,-16.3331,-16.3328,-16.3326,-16.3324,-16.1418,-16.1579,-16.1677,-16.1773,-16.1829,-16.1982,-16.2074,-16.2052,-16.2149,-16.2264,-16.2384,-16.2535,-16.2655,-16.2909,-16.2935,-16.307,-16.3038,-16.3241,-16.3057,-16.3066,-16.3042,-16.3034,-16.3049,-16.3277,-16.3283,-16.3288,-16.3292,0,-16.1155,-16.1165,-16.1414,-16.1493,-16.1517,-16.1685,-16.175,-16.1885,-16.1897,-16.2084,-16.2125,-16.2144,-16.2301,-16.2295,-16.2471,-16.2462,-16.2733,-16.2698,-16.2705,-16.2698,-16.288,-16.2864,-16.3469,-16.3547,-16.301,-16.3015,-16.302,0,-16.076,-16.097,-16.0972,-16.1116,-16.1348,-16.132,-16.1549,-16.1583,-16.1655,-16.1801,-16.1725,-16.1863,-16.1833,-16.197,-16.1957,-16.2177,-16.2209,-16.2215,-16.221,-16.2223,-16.2223,-16.2272,-16.2248,-16.2189,-16.2186,-16.2183,-16.218,0,-16.0347,-16.0592,-16.0826,-16.0883,-16.0986,-16.1095,-16.1142,-16.1222,-16.131,-16.1423,-16.1479,-16.1611,-16.1683,-16.1785,-16.1768,-16.1644,-16.2036,-16.1861,-16.2042,-16.2043,-16.2129,-16.2124,-16.2662,-16.2177,-16.2176,-16.2175,-16.2174,0,-16.0028,-16.0149,-16.0486,-16.057,-16.0635,-16.0787,-16.0918,-16.1047,-16.1135,-16.1139,-16.1226,-16.1174,-16.1365,-16.1193,-16.1454,-16.1298,-16.1373,-16.1396,-16.1408,-16.1425,-16.1233,-16.1539,-16.2051,-16.2105,-16.1441,-16.1434,-16.1429,0,-15.9554,-15.9896,-15.9876,-16.0195,-16.0352,-16.0259,-16.0427,-16.0508,-16.0526,-16.0659,-16.0676,-16.0826,-16.0696,-16.0742,-16.0872,-16.0896,-16.1099,-16.0867,-16.1055,-16.1062,-16.1037,-16.1508,-16.1587,-16.1939,-16.1351,-16.1359,-16.1365,0,-15.9186,-15.9312,-15.937,-15.9434,-15.9539,-15.9669,-15.9861,-16.0005,-16.0096,-16.0193,-16.0352,-16.0561,-16.0472,-16.0548,-16.0518,-16.0654,-16.096,-16.0539,-16.054,-16.0616,-16.131,-16.1384,-16.1444,-16.0909,-16.0919,-16.0926,-16.1303,0,-15.8706,-15.8877,-15.9035,-15.9177,-15.9277,-15.9475,-15.9472,-15.9576,-15.9539,-15.9554,-15.9786,-15.9847,-15.999,-16.0054,-16.0017,-16.0331,-16.0277,-16.0179,-16.0011,-16.032,-16.0444,-16.0494,-15.9827,-15.9822,-15.9818,-15.9815,0,0,-15.825,-15.8495,-15.8465,-15.8653,-15.8735,-15.8634,-15.8847,-15.8913,-15.905,-15.9107,-15.9014,-15.9318,-15.9371,-15.9653,-15.9749,-15.9806,-15.9861,-15.9752,-16.0173,-16.0213,-16.025,-16.0382,-16.0435,-15.9807,-15.9805,-15.9804,-15.9803,0,-15.8074,-15.8138,-15.835,-15.8419,-15.852,-15.8526,-15.8577,-15.8657,-15.8676,-15.8904,-15.8813,-15.8951,-15.9194,-15.9262,-15.9329,-15.9719,-15.9641,-15.9762,-15.9975,-16.013,-16.0176,-16.0216,-16.0356,-16.0407,-15.9792,-15.9793,-15.9793,0,-15.7713,-15.7775,-15.7877,-15.806,-15.8124,-15.8286,-15.811,-15.8288,-15.8407,-15.8281,-15.8509,-15.8541,-15.8631,-15.8898,-15.9017,-15.8935,-15.9442,-15.928,-15.9306,-15.9319,-15.9468,-15.9523,-15.9572,-15.8929,-15.8926,-15.8923,0,0,-15.7561,-15.772,-15.7777,-15.8021,-15.8069,-15.8079,-15.8163,-15.8136,-15.8222,-15.8256,-15.8296,-15.838,-15.852,-15.8613,-15.8744,-15.9038,-15.9053,-15.9174,-15.9214,-15.9248,-15.9279,-15.9437,-15.9491,-15.8912,-15.8912,-15.8911,0,0,-15.7487,-15.7565,-15.7513,-15.7797,-15.7885,-15.7954,-15.8102,-15.8039,-15.8157,-15.8133,-15.809,-15.811,-15.8359,-15.8393,-15.8245,-15.8683,-15.8517,-15.8552,-15.8652,-15.8704,-15.8744,-15.873,-15.807,0,0,0,0,0,-15.7306,-15.7555,-15.7508,-15.7555,-15.7783,-15.7981,-15.8009,-15.7982,-15.7865,-15.7984,-15.8007,-15.7918,-15.8305,-15.8172,-15.8217,-15.8383,-15.8768,-15.8793,-15.8817,-15.9016,-15.9069,-15.9115,0,0,0,0,0,0,-15.7324,-15.7382,-15.7501,-15.7582,-15.7633,-15.7971,-15.7769,-15.7768,-15.7852,-15.7832,-15.7917,-15.7921,-15.7898,-15.8147,-15.8188,-15.8346,-15.8056,-15.8778,-15.8799,-15.8819,-15.9034,-15.9078,-15.9116,0,0,0,0,0,-15.7339,-15.7385,-15.7758,-15.7578,-15.7622,-15.7646,-15.7759,-15.7757,-15.7821,-15.7857,-15.7858,-15.7793,-15.7903,-15.7936,-15.8171,-15.8328,-15.8027,-15.8042,-15.8792,-15.8809,-15.8824,-15.9056,0,0,0,0,0,0,-15.7349,-15.7383,-15.7766,-15.7778,-15.7482,-15.7626,-15.7648,-15.7747,-15.7839,-15.7844,-15.773,-15.7713,-15.791,-15.7934,-15.7959,-15.8324,-15.8004,-15.8019,-15.8029,-15.8805,-15.8818,-15.883,0,0,0,0,0,0,-15.7358,-15.7394,-15.7772,-15.7653,-15.7651,-15.7608,-15.7628,-15.7822,-15.7841,-15.7706,-15.7695,-15.7721,-15.787,-15.7934,-15.7953,-15.8258,-15.7986,-15.8001,-15.8011,-15.8018,-15.8816,-15.8826,0,0,0,0,0,0,-15.7372,-15.7404,-15.7649,-15.7648,-15.7646,-15.7781,-15.7778,-15.8012,-15.7744,-15.7703,-15.7719,-15.7707,-15.7873,-15.7891,-15.795,-15.8247,-15.8255,-15.7986,-15.7996,-15.8004,-15.8009,0,0,0,0,0,0,0,-15.7384,-15.7182,-15.7694,-15.7645,-15.7642,-15.7892,-15.7895,-15.7898,-15.7741,-15.7731,-15.7721,-15.7712,-15.79,-15.7916,-15.7933,-15.8238,0,0,-15.7985,-15.7992,0,0,0,0,0,0,0,0,-15.7168,-15.7179,-15.7695,-15.7697,-15.77,-15.7892,-15.7895,-15.7898,-15.774,-15.7731,-15.7723,-15.7716,-15.7904,-15.7918,-15.7931,0,0,0,0,0,0,0,0,0,0,0,0,0,0,0,-15.7695,-15.7697,0,-15.7893,-15.7895,-15.7897,-15.7738,-15.7732,-15.7725,-15.7719,-15.7908,-15.7919,-15.793,0,0,0,0,0,0,0,0,0,0,0,0,0,0,0,0,0,0,0,0,0,0,0,0,0,0,0,0,0,0,0,0,0,0,0,0,0,0,0,0,0,0,0,0,0,0,0,0,0,0,0,0,0,0,0,0,0,0,0,0,0,0,0,0,0,0,0,0,0]}]]]